Terug naar catalogus

STARLINK-11389

ActiefCommunicatieVLEO
NORAD 62091·PAYLOAD·🇺🇸 United States

Gelanceerd Nov 25, 2024 vanaf Cape Canaveral Space Force Station

Loading…

Volgende Passages (komende 24 uur)

TLE

VersSource: CelesTrak SupGP

Epoch: Sep 15, 2026, 03:02 UTC

1 62091C 24220D   26258.12687500 -.00007373  00000+0 -57280-4 0  2585
2 62091  43.0001 341.3578 0001561 268.4424 142.6308 15.70835279    14

Volg STARLINK-11389 in realtime met AllMySat

Download on the App Store